Location: Barcelona
(41.3830°N, 2.1830°E)
Time: 19:35:26
(UTC+02:00)

ISS - Pass Details

Date: 17 September 2020
Orbit: 419 x 421 km, 51.6° (Epoch: 30 September)

Event Time Altitude Azimuth Distance (km) Brightness Sun altitude
Rises 22:20:59 0° 254° (WSW) 2,358 0.7 -26.7°
Reaches altitude 10° 22:23:11 10° 263° (W) 1,497 -0.3 -27.1°
Enters shadow 22:24:37 21° 278° (W) 993 -1.2 -27.3°
